Location: Gleizolles
(44.4833°N, 6.7667°E)
Time: 16:21:40
(UTC+00:00)

Explorer 7 - Pass Details

Date: 22 June 2024
Orbit: 465 x 619 km, 50.3° (Epoch: 12 July)

Event Time Altitude Azimuth Distance (km) Brightness Sun altitude
Rises 15:13:19 0° 297° (WNW) 2,551 10.8 41.2°
Reaches altitude 10° 15:15:31 10° 300° (WNW) 1,652 10.1 40.8°
Maximum altitude 15:19:14 70° 25° (NNE) 503 7.1 40.1°
Drops below altitude 10° 15:22:51 10° 109° (ESE) 1,614 8.9 39.5°
Sets 15:24:59 0° 112° (ESE) 2,487 9.7 39.1°
